Regional Weather Roundup
Issued by NWS Albany, NY

Home | Current Version | Previous Version | Text Only | Print | Product List | Glossary On
Versions: 1 2 3 4 5 6 7 8 9 10 11 12 13 14 15 16 17 18 19 20 21 22 23 24 25
592
ASUS41 KALY 221610
RWRALY

NEW YORK STATE HOURLY WEATHER ROUNDUP
NATIONAL WEATHER SERVICE ALBANY NY
1200 PM EDT FRI MAY 22 2015

NOTE: "FAIR" INDICATES FEW OR NO CLOUDS BELOW 12,000 FEET WITH NO
SIGNIFICANT WEATHER AND/OR NO OBSTRUCTIONS TO VISIBILITY.

NYZ032-033-038>043-046>054-057>066-NYZ062>081-221700-
EAST


CITY           SKY/WX    TMP DP  RH WIND       PRES   REMARKS
ALBANY         MOSUNNY   65  37  35 NW17G31   29.90R
GLENS FALLS    PTSUNNY   64  34  32 NW12      29.87R
POUGHKEEPSIE   MOSUNNY   71  40  32 W17G25    29.88F
NEWBURGH       SUNNY     66  45  45 NW21G32   29.92S
MONTGOMERY     SUNNY     69  41  36 NW20G26   29.91S
WHITE PLAINS   MOSUNNY   67  42  40 NW13G21   29.91S
ISLIP          MOSUNNY   71  40  32 W14       29.89F
NEW YORK CITY  MOSUNNY   70  39  32 NW13G23   29.91F
CENTRAL PARK   MOSUNNY   72  39  30 VRB7G21   29.94F
$$

NYZ005>009-017-018-044>046-055-056-221700-
CENTRAL


CITY           SKY/WX    TMP DP  RH WIND       PRES   REMARKS
FULTON         SUNNY     55  38  52 NW12      30.02R
SYRACUSE       MOSUNNY   60  35  39 NW13      29.99S
ROME           MOSUNNY   60  31  33 NW17G25   29.97R
ELMIRA         PTSUNNY   62  38  40 NW13G24   29.98S
BINGHAMTON     CLOUDY    55  35  47 NW14G21   29.98R
MONTICELLO     PTSUNNY   61  37  41 W13G26    29.95S
$$

NYZ026>034-041>043-221700-
NORTH


CITY           SKY/WX    TMP DP  RH WIND       PRES   REMARKS
WATERTOWN      MOSUNNY   58  32  37 W8        29.99R
FORT DRUM      NOT AVBL
MASSENA        PTSUNNY   55  31  39 NW12      29.97R
SARANAC LAKE   MOSUNNY   51  22  31 NW8G17    29.90R
PLATTSBURGH    MOSUNNY   58  27  30 N17G23    29.91R
$$

NYZ001>004-010>016-019>021-221700-
WEST


CITY           SKY/WX    TMP DP  RH WIND       PRES   REMARKS
NIAGARA FALLS  PTSUNNY   56  36  47 NW5       30.06R
BUFFALO        MOSUNNY   56  38  50 SW10      30.05S
DUNKIRK        SUNNY     52  34  50 W12G21    30.10R
JAMESTOWN      SUNNY     54  27  35 W17G23    30.08R
WELLSVILLE     SUNNY     57  33  40 NW24G36   30.02S
ROCHESTER      PTSUNNY   58  38  47 N8        30.04R
PENN YAN       MOSUNNY   59  38  45 MISG      30.01S
$$

             KEY
       WCI = WIND CHILL INDEX
       VSB = VISIBILITY
       HX  = HEAT INDEX
$$



USA.gov is the U.S. government's official web portal to all federal, state and local government web resources and services.